Tracking 18851 objects as of 24-Nov-2017
HD Live streaming from Space Station
objects crossing your sky now

FENGYUN 1C DEB

Track FENGYUN 1C DEB now!
10-day predictions


NORAD ID: 30740
Int'l Code: 1999-025ATA
Perigee: 784.5 km
Apogee: 855.9 km
Inclination: 98.8 °
Period: 101.1 minutes
Semi major axis: 7191 km
RCS: 0.0332 m2 (small)
Launch date: May 10, 1999
Source: People's Republic of China (PRC)
Launch site: Taiyaun Space Center, China (TSC)

Note: This is SATELLITE DEBRIS
aabbcc
Your satellite tracking list
Your tracking list is empty




NASA's NSSDC Master Catalog

Two Line Element Set (TLE):
1 30740U 99025ATA 17326.09969633  .00001087  00000-0  48997-3 0  9999
2 30740  98.8225  16.8794 0049630 102.3137 258.3604 14.23641171556480
Source of the keplerian elements: AFSPC